Location: Pine Mountain Observatory
(43.7910°N, 120.9377°W)
Time: 14:07:04
(UTC-07:00)

Explorer 11/Cluster Stage 4 - Pass Details

Date: 31 May 2019
Orbit: 467 x 1260 km, 28.8° (Epoch: 19 June)

Event Time Altitude Azimuth Distance (km) Brightness Sun altitude
Rises 01:52:55 0° 237° (WSW) 4,044 - -23.3°
Reaches altitude 10° 01:56:40 10° 223° (SW) 2,971 - -23.1°
Maximum altitude 02:01:50 21° 178° (S) 2,087 - -22.9°
Drops below altitude 10° 02:06:24 10° 132° (SE) 2,572 - -22.6°
Exits shadow 02:07:12 - 127° (SE) 2,764 9.2 -22.6°
Sets 02:09:22 0° 116° (ESE) 3,361 9.7 -22.5°
